Time,TemperatureF,DewpointF,PressureIn,WindDirection,WindDirectionDegrees,WindSpeedMPH,WindSpeedGustMPH,Humidity,HourlyPrecipIn,Conditions,Clouds,dailyrainin,SolarRadiationWatts/m^2,SoftwareType,DateUTC
2013-03-09 00:09:00,41.8,32.4,29.93,SSE,161,5.0,5.0,69,0.00,,,0.00,0,Wunderground v.1.15,2013-03-09 07:09:00,
2013-03-09 00:19:00,41.5,32.1,29.92,SSW,207,2.0,2.0,69,0.00,,,0.00,0,Wunderground v.1.15,2013-03-09 07:19:00,
2013-03-09 00:29:00,41.4,32.0,29.93,SW,219,0.0,26.0,69,0.00,,,0.00,0,Wunderground v.1.15,2013-03-09 07:29:00,
2013-03-09 00:39:00,41.4,32.0,29.94,SSW,211,0.0,26.0,69,0.00,,,0.00,0,Wunderground v.1.15,2013-03-09 07:39:00,
2013-03-09 00:49:00,41.4,32.3,29.95,East,86,0.0,26.0,70,0.00,,,0.00,0,Wunderground v.1.15,2013-03-09 07:49:00,
2013-03-09 00:59:00,41.5,32.4,29.95,NNE,18,0.0,26.0,70,0.00,,,0.00,0,Wunderground v.1.15,2013-03-09 07:59:00,
2013-03-09 01:09:00,41.7,31.9,29.95,North,355,0.0,26.0,68,0.00,,,0.00,0,Wunderground v.1.15,2013-03-09 08:09:00,
2013-03-09 01:19:00,42.0,31.5,29.96,NNW,338,2.0,26.0,66,0.00,,,0.00,0,Wunderground v.1.15,2013-03-09 08:19:00,
2013-03-09 01:29:00,42.1,30.8,29.96,NNW,331,2.0,26.0,64,0.00,,,0.00,0,Wunderground v.1.15,2013-03-09 08:29:00,
2013-03-09 01:39:00,42.2,29.7,29.96,SW,223,1.0,1.0,61,0.00,,,0.00,0,Wunderground v.1.15,2013-03-09 08:39:00,
2013-03-09 01:49:00,42.1,28.8,29.95,West,268,2.0,2.0,59,0.00,,,0.00,0,Wunderground v.1.15,2013-03-09 08:49:00,
2013-03-09 01:59:00,42.0,29.1,29.95,WSW,257,3.0,3.0,60,0.00,,,0.00,0,Wunderground v.1.15,2013-03-09 08:59:00,
2013-03-09 02:09:00,41.9,29.8,29.95,SE,135,1.0,1.0,62,0.00,,,0.00,0,Wunderground v.1.15,2013-03-09 09:09:00,
2013-03-09 02:19:00,41.5,29.8,29.95,SSW,196,2.0,26.0,63,0.00,,,0.00,0,Wunderground v.1.15,2013-03-09 09:19:00,
2013-03-09 02:29:00,41.3,28.9,29.94,West,259,5.0,5.0,61,0.00,,,0.00,0,Wunderground v.1.15,2013-03-09 09:29:00,
2013-03-09 02:39:00,41.3,28.4,29.94,SW,215,7.0,7.0,60,0.00,,,0.00,0,Wunderground v.1.15,2013-03-09 09:39:00,
2013-03-09 02:49:00,41.0,28.6,29.94,South,176,5.0,26.0,61,0.00,,,0.00,0,Wunderground v.1.15,2013-03-09 09:49:00,
2013-03-09 02:59:00,40.9,28.1,29.93,SSW,196,7.0,26.0,60,0.00,,,0.00,0,Wunderground v.1.15,2013-03-09 09:59:00,
2013-03-09 03:09:00,40.8,28.0,29.93,SSW,206,6.0,6.0,60,0.00,,,0.00,0,Wunderground v.1.15,2013-03-09 10:09:00,
2013-03-09 03:19:00,40.6,27.8,29.92,SW,216,9.0,26.0,60,0.00,,,0.00,0,Wunderground v.1.15,2013-03-09 10:19:00,
2013-03-09 03:29:00,40.4,28.4,29.92,SSW,212,11.0,26.0,62,0.00,,,0.00,0,Wunderground v.1.15,2013-03-09 10:29:00,
2013-03-09 03:39:00,39.9,28.7,29.91,South,188,11.0,26.0,64,0.00,,,0.00,0,Wunderground v.1.15,2013-03-09 10:39:00,
2013-03-09 03:49:00,39.9,27.1,29.92,SSW,204,12.0,12.0,60,0.00,,,0.00,0,Wunderground v.1.15,2013-03-09 10:49:00,
2013-03-09 03:59:00,40.3,25.8,29.93,SSW,204,11.0,11.0,56,0.00,,,0.00,0,Wunderground v.1.15,2013-03-09 10:59:00,
2013-03-09 04:09:00,39.9,28.3,29.92,SSW,213,10.0,10.0,63,0.00,,,0.00,0,Wunderground v.1.15,2013-03-09 11:09:00,
2013-03-09 04:19:00,39.1,29.4,29.92,South,180,10.0,26.0,68,0.00,,,0.00,0,Wunderground v.1.15,2013-03-09 11:19:00,
2013-03-09 04:29:00,38.6,30.4,29.93,South,184,10.0,10.0,72,0.00,,,0.00,0,Wunderground v.1.15,2013-03-09 11:29:00,
2013-03-09 04:39:00,38.1,31.2,29.93,SSW,194,7.0,26.0,76,0.00,,,0.00,0,Wunderground v.1.15,2013-03-09 11:39:00,
2013-03-09 04:49:00,37.8,31.2,29.93,SSW,207,6.0,6.0,77,0.00,,,0.00,0,Wunderground v.1.15,2013-03-09 11:49:00,
2013-03-09 04:59:00,37.5,30.0,29.94,West,269,3.0,3.0,74,0.00,,,0.00,0,Wunderground v.1.15,2013-03-09 11:59:00,
2013-03-09 05:09:00,37.5,29.6,29.94,West,265,0.0,26.0,73,0.00,,,0.00,0,Wunderground v.1.15,2013-03-09 12:09:00,
2013-03-09 05:19:00,37.3,30.1,29.94,West,280,0.0,26.0,75,0.00,,,0.00,0,Wunderground v.1.15,2013-03-09 12:19:00,
2013-03-09 05:29:00,37.9,30.0,29.94,SSW,202,5.0,5.0,73,0.00,,,0.00,0,Wunderground v.1.15,2013-03-09 12:29:00,
2013-03-09 05:39:00,37.9,29.3,29.94,SW,230,4.0,26.0,71,0.00,,,0.00,0,Wunderground v.1.15,2013-03-09 12:39:00,
2013-03-09 05:49:00,37.6,29.4,29.94,SW,223,9.0,9.0,72,0.00,,,0.00,0,Wunderground v.1.15,2013-03-09 12:49:00,
2013-03-09 05:59:00,37.9,29.0,29.95,SSW,200,9.0,9.0,70,0.00,,,0.00,0,Wunderground v.1.15,2013-03-09 12:59:00,
2013-03-09 06:09:00,37.9,29.3,29.96,SSW,206,7.0,7.0,71,0.00,,,0.00,0,Wunderground v.1.15,2013-03-09 13:09:00,
2013-03-09 06:19:00,37.7,28.8,29.97,WSW,245,6.0,6.0,70,0.00,,,0.00,0,Wunderground v.1.15,2013-03-09 13:19:00,
2013-03-09 06:29:00,37.2,28.7,29.98,WNW,291,2.0,2.0,71,0.00,,,0.00,0,Wunderground v.1.15,2013-03-09 13:29:00,
2013-03-09 06:39:00,36.2,28.7,29.98,WNW,285,0.0,0.0,74,0.00,,,0.00,5,Wunderground v.1.15,2013-03-09 13:39:00,
2013-03-09 06:49:00,35.2,28.4,29.98,West,280,0.0,0.0,76,0.00,,,0.00,12,Wunderground v.1.15,2013-03-09 13:49:00,
2013-03-09 06:59:00,34.6,29.1,29.98,WNW,300,0.0,0.0,80,0.00,,,0.00,23,Wunderground v.1.15,2013-03-09 13:59:00,
2013-03-09 07:09:00,34.6,29.4,29.99,WNW,300,0.0,18.0,81,0.00,,,0.00,53,Wunderground v.1.15,2013-03-09 14:09:00,
2013-03-09 07:19:00,35.1,30.2,30.00,WNW,300,0.0,18.0,82,0.00,,,0.00,84,Wunderground v.1.15,2013-03-09 14:19:00,
2013-03-09 07:29:00,35.8,30.5,30.00,WNW,300,0.0,18.0,81,0.00,,,0.00,128,Wunderground v.1.15,2013-03-09 14:29:00,
2013-03-09 07:39:00,36.7,30.8,30.00,SW,227,0.0,18.0,79,0.00,,,0.00,171,Wunderground v.1.15,2013-03-09 14:39:00,
2013-03-09 07:49:00,37.6,31.0,30.00,WSW,253,0.0,18.0,77,0.00,,,0.00,216,Wunderground v.1.15,2013-03-09 14:49:00,
2013-03-09 07:59:00,38.6,31.4,30.01,WSW,253,0.0,18.0,75,0.00,,,0.00,253,Wunderground v.1.15,2013-03-09 14:59:00,
2013-03-09 08:09:00,39.5,31.2,30.00,South,190,0.0,0.0,72,0.00,,,0.00,290,Wunderground v.1.15,2013-03-09 15:09:00,
2013-03-09 08:19:00,40.6,31.6,30.01,SSW,205,0.0,0.0,70,0.00,,,0.00,330,Wunderground v.1.15,2013-03-09 15:19:00,
2013-03-09 08:29:00,41.9,31.0,30.00,SSW,196,0.0,0.0,65,0.00,,,0.00,369,Wunderground v.1.15,2013-03-09 15:29:00,
2013-03-09 08:39:00,43.2,29.0,30.00,SW,232,3.0,12.0,57,0.00,,,0.00,406,Wunderground v.1.15,2013-03-09 15:39:00,
2013-03-09 08:49:00,43.7,29.5,30.01,WSW,250,9.0,10.0,57,0.00,,,0.00,439,Wunderground v.1.15,2013-03-09 15:49:00,
2013-03-09 08:59:00,44.4,29.2,30.01,SW,227,8.0,8.0,55,0.00,,,0.00,475,Wunderground v.1.15,2013-03-09 15:59:00,
2013-03-09 09:09:00,44.3,28.2,30.02,WNW,302,3.0,7.0,53,0.00,,,0.00,506,Wunderground v.1.15,2013-03-09 16:09:00,
2013-03-09 09:19:00,44.2,30.3,30.02,NNW,346,2.0,2.0,58,0.00,,,0.00,538,Wunderground v.1.15,2013-03-09 16:19:00,
2013-03-09 09:29:00,44.3,30.9,30.02,NW,315,0.0,1.0,59,0.00,,,0.00,573,Wunderground v.1.15,2013-03-09 16:29:00,
2013-03-09 09:39:00,44.5,28.9,30.02,NW,323,0.0,0.0,54,0.00,,,0.00,605,Wunderground v.1.15,2013-03-09 16:39:00,
2013-03-09 09:49:00,45.0,29.3,30.02,NNE,15,2.0,3.0,54,0.00,,,0.00,645,Wunderground v.1.15,2013-03-09 16:49:00,
2013-03-09 09:59:00,45.1,27.6,30.03,NNW,340,3.0,3.0,50,0.00,,,0.00,689,Wunderground v.1.15,2013-03-09 16:59:00,
2013-03-09 10:09:00,45.6,27.5,30.03,NNW,334,0.0,1.0,49,0.00,,,0.00,712,Wunderground v.1.15,2013-03-09 17:09:00,
2013-03-09 10:19:00,45.7,28.1,30.03,NNW,340,0.0,0.0,50,0.00,,,0.00,728,Wunderground v.1.15,2013-03-09 17:19:00,
2013-03-09 10:29:00,46.2,27.6,30.03,WNW,299,0.0,0.0,48,0.00,,,0.00,777,Wunderground v.1.15,2013-03-09 17:29:00,
2013-03-09 10:39:00,46.7,28.5,30.03,North,10,0.0,0.0,49,0.00,,,0.00,942,Wunderground v.1.15,2013-03-09 17:39:00,
2013-03-09 10:49:00,47.0,28.8,30.03,NE,34,1.0,1.0,49,0.00,,,0.00,454,Wunderground v.1.15,2013-03-09 17:49:00,
2013-03-09 10:59:00,47.3,27.0,30.02,West,277,0.0,0.0,45,0.00,,,0.00,390,Wunderground v.1.15,2013-03-09 17:59:00,
2013-03-09 11:09:00,46.8,28.1,30.03,ENE,65,0.0,0.0,48,0.00,,,0.00,325,Wunderground v.1.15,2013-03-09 18:09:00,
2013-03-09 11:19:00,46.4,28.3,30.03,North,5,0.0,1.0,49,0.00,,,0.00,425,Wunderground v.1.15,2013-03-09 18:19:00,
2013-03-09 11:29:00,46.3,29.1,30.02,NE,47,2.0,2.0,51,0.00,,,0.00,359,Wunderground v.1.15,2013-03-09 18:29:00,
2013-03-09 11:39:00,46.8,28.1,30.02,North,355,1.0,2.0,48,0.00,,,0.00,436,Wunderground v.1.15,2013-03-09 18:39:00,
2013-03-09 11:50:00,47.0,26.7,30.02,WNW,301,4.0,4.0,45,0.00,,,0.00,327,Wunderground v.1.15,2013-03-09 18:50:00,
2013-03-09 12:00:00,47.2,26.9,30.02,WNW,290,6.0,12.0,45,0.00,,,0.00,415,Wunderground v.1.15,2013-03-09 19:00:00,
2013-03-09 12:10:00,47.7,28.9,30.02,NW,304,7.0,8.0,48,0.00,,,0.00,360,Wunderground v.1.15,2013-03-09 19:10:00,
2013-03-09 12:20:00,48.1,27.2,30.02,NW,307,7.0,7.0,44,0.00,,,0.00,417,Wunderground v.1.15,2013-03-09 19:20:00,
2013-03-09 12:30:00,47.6,27.8,30.02,WNW,296,8.0,8.0,46,0.00,,,0.00,601,Wunderground v.1.15,2013-03-09 19:30:00,
2013-03-09 12:40:00,48.2,28.9,30.01,NW,311,5.0,9.0,47,0.00,,,0.00,355,Wunderground v.1.15,2013-03-09 19:40:00,
2013-03-09 12:50:00,47.6,27.8,30.01,West,278,5.0,11.0,46,0.00,,,0.00,336,Wunderground v.1.15,2013-03-09 19:50:00,
2013-03-09 13:00:00,47.8,28.0,30.00,SW,217,2.0,3.0,46,0.00,,,0.00,1018,Wunderground v.1.15,2013-03-09 20:00:00,
2013-03-09 13:10:00,48.8,27.8,30.00,West,271,0.0,3.0,44,0.00,,,0.00,413,Wunderground v.1.15,2013-03-09 20:10:00,
2013-03-09 13:20:00,49.7,28.6,30.00,West,260,0.0,3.0,44,0.00,,,0.00,413,Wunderground v.1.15,2013-03-09 20:20:00,
2013-03-09 13:30:00,50.2,29.7,29.99,NNE,19,2.0,6.0,45,0.00,,,0.00,1127,Wunderground v.1.15,2013-03-09 20:30:00,
2013-03-09 13:40:00,49.6,29.6,29.98,ENE,67,3.0,4.0,46,0.00,,,0.00,274,Wunderground v.1.15,2013-03-09 20:40:00,
2013-03-09 13:50:00,49.4,28.9,29.98,ENE,69,3.0,13.0,45,0.00,,,0.00,359,Wunderground v.1.15,2013-03-09 20:50:00,
2013-03-09 14:00:00,49.6,29.6,29.99,SSW,198,4.0,4.0,46,0.00,,,0.00,323,Wunderground v.1.15,2013-03-09 21:00:00,
2013-03-09 14:10:00,49.7,28.6,29.99,NW,321,4.0,4.0,44,0.00,,,0.00,374,Wunderground v.1.15,2013-03-09 21:10:00,
2013-03-09 14:20:00,49.5,28.5,29.98,WNW,283,7.0,7.0,44,0.00,,,0.00,512,Wunderground v.1.15,2013-03-09 21:20:00,
2013-03-09 14:30:00,50.3,26.9,29.99,WNW,285,6.0,6.0,40,0.00,,,0.00,798,Wunderground v.1.15,2013-03-09 21:30:00,
2013-03-09 14:40:00,50.5,25.8,29.99,NNW,328,8.0,8.0,38,0.00,,,0.00,802,Wunderground v.1.15,2013-03-09 21:40:00,
2013-03-09 14:50:00,50.9,27.4,29.99,NW,313,5.0,5.0,40,0.00,,,0.00,865,Wunderground v.1.15,2013-03-09 21:50:00,
2013-03-09 15:00:00,51.5,31.9,29.99,North,5,8.0,18.0,47,0.00,,,0.00,213,Wunderground v.1.15,2013-03-09 22:00:00,
2013-03-09 15:10:00,48.8,30.0,30.00,North,355,11.0,11.0,48,0.00,,,0.00,190,Wunderground v.1.15,2013-03-09 22:10:00,
2013-03-09 15:20:00,49.1,31.7,30.00,NW,311,10.0,10.0,51,0.00,,,0.00,431,Wunderground v.1.15,2013-03-09 22:20:00,
2013-03-09 15:30:00,47.8,31.5,30.00,NNW,330,12.0,12.0,53,0.00,,,0.00,343,Wunderground v.1.15,2013-03-09 22:30:00,
2013-03-09 15:40:00,48.2,34.1,30.00,NNW,332,10.0,10.0,58,0.00,,,0.00,742,Wunderground v.1.15,2013-03-09 22:40:00,
2013-03-09 15:50:00,49.1,32.2,30.00,NNE,15,10.0,11.0,52,0.00,,,0.00,573,Wunderground v.1.15,2013-03-09 22:50:00,
2013-03-09 16:00:00,48.8,31.0,30.01,North,355,7.0,7.0,50,0.00,,,0.00,526,Wunderground v.1.15,2013-03-09 23:00:00,
2013-03-09 16:10:00,49.0,30.7,30.00,NW,311,3.0,19.0,49,0.00,,,0.00,76,Wunderground v.1.15,2013-03-09 23:10:00,
2013-03-09 16:20:00,48.4,31.6,30.00,North,355,9.0,19.0,52,0.00,,,0.00,464,Wunderground v.1.15,2013-03-09 23:20:00,
2013-03-09 16:30:00,49.0,32.6,30.01,WNW,303,10.0,19.0,53,0.00,,,0.00,381,Wunderground v.1.15,2013-03-09 23:30:00,
2013-03-09 16:40:00,48.2,31.4,30.02,NW,318,10.0,19.0,52,0.00,,,0.00,90,Wunderground v.1.15,2013-03-09 23:40:00,
2013-03-09 16:50:00,47.6,31.3,30.02,WNW,303,10.0,10.0,53,0.00,,,0.00,371,Wunderground v.1.15,2013-03-09 23:50:00,
2013-03-09 17:00:00,48.0,31.2,30.02,NNW,333,9.0,9.0,52,0.00,,,0.00,84,Wunderground v.1.15,2013-03-10 00:00:00,
2013-03-09 17:10:00,46.7,31.4,30.03,NW,319,10.0,10.0,55,0.00,,,0.00,69,Wunderground v.1.15,2013-03-10 00:10:00,
2013-03-09 17:20:00,46.1,31.7,30.03,NW,312,11.0,11.0,57,0.00,,,0.00,70,Wunderground v.1.15,2013-03-10 00:20:00,
2013-03-09 17:30:00,46.1,31.7,30.03,NNW,348,7.0,13.0,57,0.00,,,0.00,39,Wunderground v.1.15,2013-03-10 00:30:00,
2013-03-09 17:39:00,45.9,31.5,30.04,NW,309,7.0,8.0,57,0.00,,,0.00,28,Wunderground v.1.15,2013-03-10 00:39:00,
2013-03-09 17:50:00,45.7,31.3,30.03,WNW,290,8.0,15.0,57,0.00,,,0.00,32,Wunderground v.1.15,2013-03-10 00:50:00,
2013-03-09 18:00:00,45.6,31.7,30.04,NNW,344,6.0,6.0,58,0.00,,,0.00,21,Wunderground v.1.15,2013-03-10 01:00:00,
2013-03-09 18:09:00,45.4,31.5,30.04,WNW,284,6.0,19.0,58,0.00,,,0.00,12,Wunderground v.1.15,2013-03-10 01:09:00,
2013-03-09 18:20:00,45.0,31.5,30.04,NNW,331,5.0,5.0,59,0.00,,,0.00,7,Wunderground v.1.15,2013-03-10 01:20:00,
2013-03-09 18:29:00,44.6,31.6,30.05,NNW,340,2.0,2.0,60,0.00,,,0.00,0,Wunderground v.1.15,2013-03-10 01:29:00,
2013-03-09 18:39:00,44.3,30.9,30.05,NW,315,4.0,4.0,59,0.00,,,0.00,0,Wunderground v.1.15,2013-03-10 01:39:00,
2013-03-09 18:49:00,43.9,31.3,30.06,NW,311,4.0,19.0,61,0.00,,,0.00,0,Wunderground v.1.15,2013-03-10 01:49:00,
2013-03-09 18:59:00,43.6,31.4,30.06,NNW,331,6.0,19.0,62,0.00,,,0.00,0,Wunderground v.1.15,2013-03-10 01:59:00,
2013-03-09 19:09:00,43.6,31.8,30.06,WNW,303,6.0,6.0,63,0.00,,,0.00,0,Wunderground v.1.15,2013-03-10 02:09:00,
2013-03-09 19:19:00,43.4,32.0,30.05,NW,306,8.0,8.0,64,0.00,,,0.00,0,Wunderground v.1.15,2013-03-10 02:19:00,
2013-03-09 19:29:00,42.9,31.9,30.07,WNW,299,4.0,4.0,65,0.00,,,0.00,0,Wunderground v.1.15,2013-03-10 02:29:00,
2013-03-09 19:39:00,42.5,32.3,30.07,WNW,298,2.0,2.0,67,0.00,,,0.00,0,Wunderground v.1.15,2013-03-10 02:39:00,
2013-03-09 19:49:00,42.1,32.7,30.07,NNW,341,1.0,1.0,69,0.00,,,0.00,0,Wunderground v.1.15,2013-03-10 02:49:00,
2013-03-09 19:59:00,41.7,33.0,30.08,NNW,342,2.0,4.0,71,0.00,,,0.00,0,Wunderground v.1.15,2013-03-10 02:59:00,
2013-03-09 20:09:00,41.3,33.0,30.08,NNW,347,5.0,5.0,72,0.00,,,0.00,0,Wunderground v.1.15,2013-03-10 03:09:00,
2013-03-09 20:19:00,41.1,33.1,30.08,North,5,5.0,13.0,73,0.00,,,0.00,0,Wunderground v.1.15,2013-03-10 03:19:00,
2013-03-09 20:29:00,41.1,33.4,30.08,North,10,5.0,13.0,74,0.00,,,0.00,0,Wunderground v.1.15,2013-03-10 03:29:00,
2013-03-09 20:39:00,40.9,33.2,30.08,NNE,19,4.0,4.0,74,0.00,,,0.00,0,Wunderground v.1.15,2013-03-10 03:39:00,
2013-03-09 20:49:00,40.6,33.3,30.08,NNW,346,4.0,13.0,75,0.00,,,0.00,0,Wunderground v.1.15,2013-03-10 03:49:00,
2013-03-09 20:59:00,40.7,33.4,30.08,North,5,5.0,5.0,75,0.00,,,0.00,0,Wunderground v.1.15,2013-03-10 03:59:00,
2013-03-09 21:09:00,40.7,33.1,30.09,North,360,3.0,3.0,74,0.00,,,0.00,0,Wunderground v.1.15,2013-03-10 04:09:00,
2013-03-09 21:19:00,40.6,33.3,30.09,North,355,0.0,0.0,75,0.00,,,0.00,0,Wunderground v.1.15,2013-03-10 04:19:00,
2013-03-09 21:29:00,40.4,33.4,30.10,North,360,0.0,0.0,76,0.00,,,0.00,0,Wunderground v.1.15,2013-03-10 04:29:00,
2013-03-09 21:39:00,40.0,33.4,30.10,North,5,0.0,0.0,77,0.00,,,0.00,0,Wunderground v.1.15,2013-03-10 04:39:00,
2013-03-09 21:49:00,39.7,33.1,30.09,North,5,0.0,0.0,77,0.00,,,0.00,0,Wunderground v.1.15,2013-03-10 04:49:00,
2013-03-09 21:59:00,39.5,33.5,30.09,North,360,0.0,0.0,79,0.00,,,0.00,0,Wunderground v.1.15,2013-03-10 04:59:00,
2013-03-09 22:09:00,39.8,33.5,30.09,North,5,0.0,11.0,78,0.00,,,0.00,0,Wunderground v.1.15,2013-03-10 05:09:00,
2013-03-09 22:19:00,39.9,33.6,30.10,NNW,338,0.0,11.0,78,0.00,,,0.00,0,Wunderground v.1.15,2013-03-10 05:19:00,
2013-03-09 22:29:00,39.9,33.6,30.09,NNW,336,0.0,11.0,78,0.00,,,0.00,0,Wunderground v.1.15,2013-03-10 05:29:00,
2013-03-09 22:39:00,39.7,33.4,30.09,NNW,336,0.0,11.0,78,0.00,,,0.00,0,Wunderground v.1.15,2013-03-10 05:39:00,
2013-03-09 22:49:00,39.1,33.1,30.10,NNW,336,0.0,11.0,79,0.00,,,0.00,0,Wunderground v.1.15,2013-03-10 05:49:00,
2013-03-09 22:59:00,38.5,32.9,30.10,NNW,336,0.0,11.0,80,0.00,,,0.00,0,Wunderground v.1.15,2013-03-10 05:59:00,
2013-03-09 23:09:00,38.0,32.4,30.10,NNW,336,0.0,11.0,80,0.00,,,0.00,0,Wunderground v.1.15,2013-03-10 06:09:00,
2013-03-09 23:19:00,37.8,32.5,30.10,North,355,0.0,11.0,81,0.00,,,0.00,0,Wunderground v.1.15,2013-03-10 06:19:00,
2013-03-09 23:29:00,37.9,32.6,30.10,NNW,347,0.0,11.0,81,0.00,,,0.00,0,Wunderground v.1.15,2013-03-10 06:29:00,
2013-03-09 23:39:00,37.9,32.9,30.10,NNW,347,0.0,11.0,82,0.00,,,0.00,0,Wunderground v.1.15,2013-03-10 06:39:00,
2013-03-09 23:49:00,37.9,32.9,30.10,NNW,344,0.0,11.0,82,0.00,,,0.00,0,Wunderground v.1.15,2013-03-10 06:49:00,
2013-03-09 23:59:00,37.8,32.8,30.10,NNW,344,0.0,11.0,82,0.00,,,0.00,0,Wunderground v.1.15,2013-03-10 06:59:00,